| time (UTC) | temp F | wind direction | speed MPH | gust MPH | rain 1hr in | rain 24hr in | rain mn in | humidity % | barometer mb |
| 20260505124503 | 53 | 0 | 0.0 | 0.0 | 0.00 | 0.00 | 0.00 | 90 | 1012.6 |
| 20260505123603 | 53 | 0 | 0.0 | 0.0 | 0.00 | 0.00 | 0.00 | 91 | 1012.5 |
| 20260505122703 | 52 | 0 | 0.0 | 0.0 | 0.00 | 0.00 | 0.00 | 91 | 1012.5 |
| 20260505121803 | 52 | 0 | 0.0 | 0.0 | 0.00 | 0.00 | 0.00 | 91 | 1012.5 |
| 20260505121113 | 52 | 0 | 0.0 | 0.0 | 0.00 | 0.00 | 0.00 | 91 | 1012.5 |
| 20260505120004 | 52 | 0 | 0.0 | 0.0 | 0.00 | 0.00 | 0.00 | 92 | 1012.4 |
| 20260505115403 | 52 | 0 | 0.0 | 0.0 | 0.00 | 0.00 | 0.00 | 92 | 1012.4 |
| 20260505114503 | 52 | 0 | 0.0 | 0.0 | 0.00 | 0.00 | 0.00 | 91 | 1012.4 |
| 20260505113603 | 52 | 0 | 0.0 | 0.0 | 0.00 | 0.00 | 0.00 | 91 | 1012.3 |
| 20260505112703 | 52 | 0 | 0.0 | 0.0 | 0.00 | 0.00 | 0.00 | 92 | 1012.4 |
| 20260505111803 | 52 | 0 | 0.0 | 0.0 | 0.00 | 0.00 | 0.00 | 92 | 1012.4 |
| 20260505110903 | 52 | 0 | 0.0 | 0.0 | 0.00 | 0.00 | 0.00 | 91 | 1012.3 |
| 20260505110214 | 52 | 0 | 0.0 | 0.0 | 0.00 | 0.00 | 0.00 | 91 | 1012.2 |
| 20260505101803 | 52 | 0 | 0.0 | 0.0 | 0.00 | 0.00 | 0.00 | 91 | 1011.8 |
| 20260505100903 | 51 | 0 | 0.0 | 0.0 | 0.00 | 0.00 | 0.00 | 91 | 1011.8 |
| 20260505100213 | 51 | 0 | 0.0 | 0.0 | 0.00 | 0.00 | 0.00 | 91 | 1011.8 |
| 20260505095403 | 51 | 0 | 0.0 | 0.0 | 0.00 | 0.00 | 0.00 | 90 | 1011.8 |
| 20260505094503 | 51 | 0 | 0.0 | 0.0 | 0.00 | 0.00 | 0.00 | 90 | 1011.8 |
| 20260505093603 | 51 | 0 | 0.0 | 0.0 | 0.00 | 0.00 | 0.00 | 89 | 1011.7 |
| 20260505092703 | 52 | 0 | 0.0 | 0.0 | 0.00 | 0.00 | 0.00 | 89 | 1011.6 |
| 20260505091803 | 52 | 0 | 0.0 | 0.0 | 0.00 | 0.00 | 0.00 | 89 | 1011.6 |
| 20260505090903 | 52 | 0 | 0.0 | 0.0 | 0.00 | 0.00 | 0.00 | 89 | 1011.5 |
| 20260505090213 | 52 | 0 | 0.0 | 0.0 | 0.00 | 0.00 | 0.00 | 88 | 1011.5 |
| 20260505085403 | 52 | 110 | 1.0 | 4.0 | 0.00 | 0.00 | 0.00 | 88 | 1011.3 |
| 20260505084714 | 53 | 117 | 0.0 | 5.0 | 0.00 | 0.00 | 0.00 | 88 | 1011.3 |
| 20260505083603 | 53 | 186 | 2.0 | 5.0 | 0.00 | 0.00 | 0.00 | 88 | 1011.3 |
| 20260505082703 | 53 | 179 | 1.0 | 5.0 | 0.00 | 0.00 | 0.00 | 88 | 1011.3 |
| 20260505081803 | 54 | 189 | 1.0 | 3.0 | 0.00 | 0.00 | 0.00 | 87 | 1011.3 |
| 20260505081113 | 54 | 194 | 1.0 | 2.0 | 0.00 | 0.00 | 0.00 | 87 | 1011.2 |
| 20260505080003 | 54 | 168 | 0.0 | 5.0 | 0.00 | 0.00 | 0.00 | 86 | 1011.1 |
| 20260505075403 | 54 | 180 | 0.0 | 3.0 | 0.00 | 0.00 | 0.00 | 86 | 1011.1 |
| 20260505074714 | 55 | 144 | 1.0 | 3.0 | 0.00 | 0.00 | 0.00 | 86 | 1011.0 |
| 20260505073603 | 55 | 175 | 1.0 | 4.0 | 0.00 | 0.00 | 0.00 | 86 | 1010.8 |
| 20260505072703 | 55 | 173 | 1.0 | 7.0 | 0.00 | 0.00 | 0.00 | 86 | 1010.6 |
| 20260505071803 | 55 | 181 | 1.0 | 7.0 | 0.00 | 0.00 | 0.00 | 86 | 1010.6 |
| 20260505071113 | 56 | 176 | 0.0 | 7.0 | 0.00 | 0.00 | 0.00 | 85 | 1010.6 |
| 20260505070003 | 56 | 165 | 1.0 | 6.0 | 0.00 | 0.00 | 0.00 | 85 | 1010.5 |
| 20260505065614 | 56 | 172 | 1.0 | 6.0 | 0.00 | 0.00 | 0.00 | 85 | 1010.5 |
| 20260505064713 | 56 | 180 | 2.0 | 5.0 | 0.00 | 0.00 | 0.00 | 85 | 1010.3 |
| 20260505063603 | 56 | 172 | 4.0 | 6.0 | 0.00 | 0.00 | 0.00 | 84 | 1010.1 |
| 20260505062914 | 56 | 175 | 4.0 | 9.0 | 0.00 | 0.00 | 0.00 | 84 | 1010.0 |
| 20260505061803 | 57 | 178 | 3.0 | 8.0 | 0.00 | 0.00 | 0.00 | 84 | 1009.9 |
| 20260505060903 | 57 | 178 | 3.0 | 8.0 | 0.00 | 0.00 | 0.00 | 83 | 1009.8 |
| 20260505060214 | 58 | 183 | 3.0 | 7.0 | 0.00 | 0.00 | 0.00 | 83 | 1009.8 |
| 20260505055403 | 58 | 181 | 3.0 | 5.0 | 0.00 | 0.00 | 0.00 | 82 | 1009.8 |
| 20260505054503 | 58 | 177 | 4.0 | 8.0 | 0.00 | 0.00 | 0.00 | 81 | 1009.8 |
| 20260505053603 | 59 | 181 | 4.0 | 8.0 | 0.00 | 0.00 | 0.00 | 81 | 1009.6 |
| 20260505052914 | 59 | 179 | 4.0 | 9.0 | 0.00 | 0.00 | 0.00 | 80 | 1009.6 |
| 20260505051803 | 60 | 185 | 5.0 | 10.0 | 0.00 | 0.00 | 0.00 | 79 | 1009.5 |
| 20260505050903 | 60 | 186 | 4.0 | 10.0 | 0.00 | 0.00 | 0.00 | 78 | 1009.4 |
| 20260505040903 | 64 | 186 | 4.0 | 8.0 | 0.00 | 0.00 | 0.00 | 73 | 1008.6 |
| 20260505040004 | 65 | 190 | 6.0 | 12.0 | 0.00 | 0.00 | 0.00 | 72 | 1008.3 |
| 20260505035612 | 65 | 194 | 7.0 | 13.0 | 0.00 | 0.00 | 0.00 | 72 | 1008.3 |
| 20260505034503 | 66 | 200 | 6.0 | 13.0 | 0.00 | 0.00 | 0.00 | 72 | 1008.1 |
| 20260505033813 | 66 | 184 | 7.0 | 13.0 | 0.00 | 0.00 | 0.00 | 71 | 1008.0 |
| 20260505032913 | 67 | 184 | 7.0 | 12.0 | 0.00 | 0.00 | 0.00 | 70 | 1008.0 |
| 20260505031803 | 67 | 190 | 6.0 | 13.0 | 0.00 | 0.00 | 0.00 | 70 | 1007.9 |
| 20260505030903 | 68 | 181 | 6.0 | 13.0 | 0.00 | 0.00 | 0.00 | 70 | 1007.8 |
| 20260505030003 | 68 | 188 | 6.0 | 11.0 | 0.00 | 0.00 | 0.00 | 71 | 1007.7 |
| 20260505025403 | 69 | 186 | 6.0 | 14.0 | 0.00 | 0.00 | 0.00 | 71 | 1007.7 |
| 20260505024503 | 69 | 192 | 7.0 | 14.0 | 0.00 | 0.00 | 0.00 | 70 | 1007.6 |
| 20260505023603 | 70 | 188 | 7.0 | 14.0 | 0.00 | 0.00 | 0.00 | 69 | 1007.5 |
| 20260505022915 | 70 | 188 | 5.0 | 13.0 | 0.00 | 0.00 | 0.00 | 69 | 1007.5 |
| 20260505022014 | 71 | 188 | 4.0 | 10.0 | 0.00 | 0.00 | 0.00 | 70 | 1007.5 |
| 20260505020903 | 72 | 194 | 4.0 | 9.0 | 0.00 | 0.00 | 0.00 | 69 | 1007.4 |
| 20260505020004 | 72 | 190 | 5.0 | 9.0 | 0.00 | 0.00 | 0.00 | 68 | 1007.5 |
| 20260505015614 | 72 | 203 | 6.0 | 10.0 | 0.00 | 0.00 | 0.00 | 68 | 1007.5 |
| 20260505014503 | 73 | 200 | 5.0 | 12.0 | 0.00 | 0.00 | 0.00 | 65 | 1007.4 |
| 20260505013603 | 74 | 195 | 5.0 | 9.0 | 0.00 | 0.00 | 0.00 | 65 | 1007.4 |
| 20260505012914 | 73 | 196 | 6.0 | 10.0 | 0.00 | 0.00 | 0.00 | 66 | 1007.5 |
| 20260505011803 | 74 | 196 | 5.0 | 11.0 | 0.00 | 0.00 | 0.00 | 65 | 1007.6 |
| 20260505010903 | 75 | 201 | 4.0 | 10.0 | 0.00 | 0.00 | 0.00 | 65 | 1007.7 |
| 20260505010003 | 74 | 198 | 5.0 | 10.0 | 0.00 | 0.00 | 0.00 | 65 | 1007.7 |
| 20260505005403 | 74 | 203 | 5.0 | 11.0 | 0.00 | 0.00 | 0.00 | 66 | 1007.8 |
| 20260505004503 | 74 | 206 | 6.0 | 11.0 | 0.00 | 0.00 | 0.00 | 66 | 1007.8 |
| 20260505003603 | 75 | 201 | 4.0 | 10.0 | 0.00 | 0.00 | 0.00 | 63 | 1007.8 |
| 20260505002913 | 75 | 223 | 4.0 | 10.0 | 0.00 | 0.00 | 0.00 | 63 | 1007.9 |
| 20260505001803 | 75 | 214 | 3.0 | 10.0 | 0.00 | 0.00 | 0.00 | 66 | 1007.9 |
| 20260505000903 | 75 | 215 | 4.0 | 8.0 | 0.00 | 0.00 | 0.00 | 63 | 1007.9 |
| 20260505000003 | 74 | 193 | 6.0 | 13.0 | 0.00 | 0.00 | 0.00 | 68 | 1008.0 |
| 20260504235403 | 74 | 189 | 6.0 | 12.0 | 0.00 | 0.00 | 0.00 | 65 | 1008.0 |
| 20260504234503 | 74 | 207 | 6.0 | 13.0 | 0.00 | 0.00 | 0.00 | 66 | 1008.1 |
| 20260504233603 | 74 | 216 | 3.0 | 13.0 | 0.00 | 0.00 | 0.00 | 65 | 1008.2 |
| 20260504232703 | 74 | 212 | 4.0 | 12.0 | 0.00 | 0.00 | 0.00 | 68 | 1008.2 |
| 20260504231803 | 74 | 205 | 5.0 | 12.0 | 0.00 | 0.00 | 0.00 | 67 | 1008.2 |
| 20260504230903 | 74 | 212 | 4.0 | 12.0 | 0.00 | 0.00 | 0.00 | 65 | 1008.3 |
| 20260504230003 | 73 | 179 | 5.0 | 13.0 | 0.00 | 0.00 | 0.00 | 68 | 1008.4 |
| 20260504225613 | 73 | 191 | 5.0 | 13.0 | 0.00 | 0.00 | 0.00 | 65 | 1008.5 |
| 20260504224714 | 74 | 194 | 4.0 | 11.0 | 0.00 | 0.00 | 0.00 | 65 | 1008.6 |
| 20260504223603 | 73 | 186 | 4.0 | 9.0 | 0.00 | 0.00 | 0.00 | 66 | 1008.7 |
| 20260504222703 | 72 | 193 | 3.0 | 9.0 | 0.00 | 0.00 | 0.00 | 67 | 1008.8 |
| 20260504221803 | 72 | 185 | 4.0 | 9.0 | 0.00 | 0.00 | 0.00 | 68 | 1008.8 |
| 20260504221114 | 71 | 181 | 4.0 | 10.0 | 0.00 | 0.00 | 0.00 | 66 | 1009.0 |
| 20260504220003 | 71 | 200 | 4.0 | 10.0 | 0.00 | 0.00 | 0.00 | 68 | 1009.2 |
| 20260504215403 | 71 | 198 | 4.0 | 10.0 | 0.00 | 0.00 | 0.00 | 66 | 1009.2 |
| 20260504214714 | 71 | 188 | 3.0 | 11.0 | 0.00 | 0.00 | 0.00 | 68 | 1009.2 |
| 20260504213603 | 70 | 183 | 3.0 | 10.0 | 0.00 | 0.00 | 0.00 | 67 | 1009.4 |
| 20260504212703 | 69 | 184 | 3.0 | 10.0 | 0.00 | 0.00 | 0.00 | 69 | 1009.5 |
| 20260504211803 | 69 | 164 | 4.0 | 9.0 | 0.00 | 0.00 | 0.00 | 71 | 1009.7 |
| 20260504210903 | 68 | 176 | 3.0 | 9.0 | 0.00 | 0.00 | 0.00 | 70 | 1009.8 |
| 20260504210003 | 68 | 188 | 3.0 | 10.0 | 0.00 | 0.00 | 0.00 | 70 | 1010.0 |
| 20260504205614 | 68 | 189 | 3.0 | 10.0 | 0.00 | 0.00 | 0.00 | 74 | 1010.1 |
| 20260504204713 | 67 | 199 | 4.0 | 10.0 | 0.00 | 0.00 | 0.00 | 75 | 1010.2 |
| 20260504203603 | 66 | 171 | 3.0 | 9.0 | 0.00 | 0.00 | 0.00 | 74 | 1010.4 |
| 20260504202703 | 65 | 181 | 4.0 | 11.0 | 0.00 | 0.00 | 0.00 | 75 | 1010.4 |
| 20260504201803 | 64 | 184 | 4.0 | 10.0 | 0.00 | 0.00 | 0.00 | 75 | 1010.6 |
| 20260504200903 | 64 | 190 | 4.0 | 10.0 | 0.00 | 0.00 | 0.00 | 78 | 1010.7 |
| 20260504200214 | 63 | 185 | 4.0 | 8.0 | 0.00 | 0.00 | 0.00 | 77 | 1010.7 |
| 20260504195403 | 63 | 190 | 5.0 | 13.0 | 0.00 | 0.00 | 0.00 | 80 | 1010.8 |
| 20260504194503 | 62 | 197 | 3.0 | 13.0 | 0.00 | 0.00 | 0.00 | 79 | 1010.8 |
| 20260504193603 | 62 | 194 | 3.0 | 8.0 | 0.00 | 0.00 | 0.00 | 79 | 1010.9 |
| 20260504192703 | 61 | 204 | 2.0 | 6.0 | 0.00 | 0.00 | 0.00 | 79 | 1010.9 |
| 20260504191803 | 61 | 198 | 3.0 | 8.0 | 0.00 | 0.00 | 0.00 | 80 | 1011.0 |
| 20260504190903 | 60 | 187 | 3.0 | 9.0 | 0.00 | 0.00 | 0.00 | 81 | 1011.1 |
| 20260504190003 | 60 | 192 | 3.0 | 9.0 | 0.00 | 0.00 | 0.00 | 82 | 1011.1 |
| 20260504185613 | 60 | 189 | 3.0 | 9.0 | 0.00 | 0.00 | 0.00 | 82 | 1011.1 |
| 20260504184503 | 59 | 190 | 4.0 | 11.0 | 0.00 | 0.00 | 0.00 | 82 | 1011.2 |
| 20260504183603 | 59 | 188 | 5.0 | 9.0 | 0.00 | 0.00 | 0.00 | 82 | 1011.3 |
| 20260504182703 | 59 | 183 | 4.0 | 10.0 | 0.00 | 0.00 | 0.00 | 83 | 1011.2 |
| 20260504181803 | 58 | 176 | 4.0 | 8.0 | 0.00 | 0.00 | 0.00 | 83 | 1011.1 |
| 20260504180903 | 58 | 182 | 4.0 | 8.0 | 0.00 | 0.00 | 0.00 | 84 | 1011.1 |
| 20260504180003 | 58 | 173 | 5.0 | 10.0 | 0.00 | 0.00 | 0.00 | 85 | 1011.2 |
| 20260504175403 | 58 | 184 | 5.0 | 11.0 | 0.00 | 0.00 | 0.00 | 84 | 1011.2 |
| 20260504174503 | 57 | 180 | 5.0 | 11.0 | 0.00 | 0.00 | 0.00 | 83 | 1011.2 |
| 20260504173603 | 57 | 182 | 6.0 | 11.0 | 0.00 | 0.00 | 0.00 | 84 | 1011.1 |
| 20260504172703 | 57 | 187 | 5.0 | 10.0 | 0.00 | 0.00 | 0.00 | 84 | 1011.1 |
| 20260504171803 | 57 | 176 | 4.0 | 12.0 | 0.00 | 0.00 | 0.00 | 84 | 1011.0 |
| 20260504171113 | 57 | 184 | 4.0 | 10.0 | 0.00 | 0.00 | 0.00 | 84 | 1011.1 |
| 20260504150903 | 54 | 193 | 5.0 | 10.0 | 0.00 | 0.00 | 0.00 | 88 | 1010.6 |
| 20260504140903 | 53 | 175 | 4.0 | 9.0 | 0.00 | 0.00 | 0.00 | 91 | 1009.9 |